Flag for U.S.A. Weather past 2 weeks in San Francisco, California, U.S.A.

Now
55 °F

Clear.


Feels Like: 53 °F
Forecast: 51 / 64 °F
Wind: 7 mph from Northwest

Location: San Francisco International Airport

Current Time: Mar 30, 2015 at 1:10:02 AM

Latest Report: Mar 30, 2015 at 12:56 AM


Visibility: 10 mi

Pressure: 30.03 "Hg

Humidity: 87%

Dew point: 51 °F

Location of San FranciscoLocation

Historic Weather in San Francisco — Graph

°F

San Francisco temperature yesterday

Maximum temperature yesterday: 70 °F (at 3:56 PM)
Minimum temperature yesterday: 50 °F (at 6:56 AM)
Average temperature yesterday: 59 °F

Past Weeks' High & Low Weather Summary

 TemperatureHumidityPressure
High78 °F (Mar 26, 4:56 PM)100% (Mar 17, 3:56 AM)30.31 "Hg (Mar 17, 3:56 AM)
Low50 °F (Mar 19, 5:56 AM)29% (Mar 20, 2:56 PM)29.98 "Hg (Mar 15, 4:56 AM)
Average60 °F80%30.12 "Hg
* Reported Mar 14 11:56 PM — Mar 29 11:56 PM, San Francisco, Weather by CustomWeather, © 2015

Note: Actual official high and low records may vary slightly from our data, if they occured in-between our weather recording intervals... More about our weather records

Advertising

San Francisco weather history for previous 24 hours

 ConditionsComfort  
Time TempWeatherWind HumidityBarometerVisibility
11:56 PM
Sun, Mar 29
56 °FClear.8 mph84%30.04 "Hg10 mi
10:56 PM57 °FPassing clouds.7 mph83%30.04 "Hg10 mi
9:56 PM57 °FPassing clouds.10 mph83%30.04 "Hg10 mi
8:56 PM58 °FPassing clouds.13 mph84%30.03 "Hg10 mi
7:56 PM58 °FScattered clouds.15 mph84%30.01 "Hg10 mi
6:56 PM61 °FPassing clouds.21 mph67%30.01 "Hg10 mi
5:56 PM64 °FPassing clouds.23 mph61%30.02 "Hg10 mi
4:56 PM67 °FPassing clouds.18 mph57%30.02 "Hg10 mi
3:56 PM70 °FPassing clouds.16 mph47%30.03 "Hg10 mi
2:56 PM69 °FPassing clouds.21 mph49%30.04 "Hg10 mi
1:56 PM69 °FPassing clouds.17 mph55%30.06 "Hg10 mi
12:56 PM65 °FPassing clouds.5 mph70%30.08 "Hg10 mi
11:56 AM63 °FPassing clouds.3 mph73%30.11 "Hg10 mi
10:56 AM61 °FPassing clouds.5 mph78%30.12 "Hg10 mi
9:56 AM60 °FPassing clouds.No wind78%30.12 "Hg10 mi
8:56 AM57 °FPassing clouds.No wind81%30.11 "Hg10 mi
7:56 AM53 °FPassing clouds.No wind89%30.11 "Hg10 mi
6:56 AM50 °FPassing clouds.3 mph96%30.11 "Hg10 mi
5:56 AM52 °FPassing clouds.7 mph93%30.11 "Hg8 mi
4:56 AM53 °FPassing clouds.13 mph96%30.11 "Hg8 mi
3:56 AM53 °FClear.13 mph93%30.11 "Hg9 mi
2:56 AM53 °FClear.12 mph96%30.11 "Hg9 mi
1:56 AM53 °FClear.9 mph93%30.12 "Hg9 mi
Weather by CustomWeather, © 2015

See weather overviewHow to use our weather pages